Leonardo Vega

Olheiro-Chefe - Atlanta
3 Abr 2027
Sábado
Processo

Personalidade

Adaptabilidade (9) Ambição (20) Controvérsia (9) Lealdade (2) Pressão (12) Profissionalismo (17) Espírito Esportivo (16) Temperamento (15)

Perfil

Estilo de Treinamento Democrático
Licença Nacional B
Determinação 6
Gestão de Pessoas 6
Motivação 4
Disciplina 4
Satisfação no Trabalho
93%
Fadiga
0%
Função Olheiro-Chefe
Salário 14.1K p/s
Contrato 14.03.2030

Desempenho

Comportamento Bom
Eficácia do Treinamento
25%
Desenvolvimento do Jogador
25%
Prevenção de Lesões
30%
Implementação Tática
35%

Eventos Recentes

Participou de uma reunião de recrutamento 7d atrás
Participou de uma reunião de recrutamento 14d atrás
Participou de uma reunião de recrutamento 21d atrás
Participou de uma reunião de recrutamento 28d atrás
Participou de uma reunião de recrutamento 35d atrás
Participou de uma reunião de recrutamento 42d atrás
Participou de uma reunião de recrutamento 49d atrás
Participou de uma reunião de recrutamento 56d atrás

Monitorando agora

110
Jogador Clube Status Habilidade Confiança Observado Última observação Último voto
Matías Viguet Maipú Ativo 126 / 119 40% 1 28.11.2026 -
Brian Calderara Chacarita Juniors Ativo 105 / 113 40% 1 28.11.2026 -
Lautaro Lovazzano Portuguesa Ativo 93 / 110 40% 2 27.11.2026 -
Fernando Monarrez Puebla Ativo 109 / 115 40% 1 27.11.2026 -
Brahian Cuello Unión de Santa Fe Ativo 108 / 113 40% 2 23.11.2026 -
Julián Vila Arsenal Ativo 91 / 96 40% 2 20.11.2026 -
Diego Becker Tristán Suárez Ativo 95 / 91 40% 1 16.11.2026 -
Facundo Pérez Juventud Ativo 105 / 96 40% 1 15.11.2026 -
Mateo Montenegro Mitre Ativo 116 / 111 40% 1 15.11.2026 -
Andres Lioi Chaco For Ever Ativo 112 / 105 40% 5 13.11.2026 -
Franco Fagúndez Estudiantes Ativo 104 / 128 40% 1 10.11.2026 -
Fernando Bersano Madryn Ativo 108 / 131 40% 1 09.11.2026 -
Joshuan Berríos Carabobo Ativo 95 / 87 40% 1 09.11.2026 -
Federico Pérez Agropecuario Argentino Ativo 105 / 102 40% 1 07.11.2026 -
Agustín Pérez Deportivo Tachira Ativo 106 / 93 40% 1 07.11.2026 -
Jorge Espejo Universidad de Concepcion Ativo 120 / 109 40% 3 04.11.2026 -
Esteven Salguero Patriotas Ativo 94 / 95 40% 1 02.11.2026 -
Valentin Pereyra Patronato Ativo 118 / 102 40% 1 01.11.2026 -
Juan Rocca Gimnasia y Tiro Ativo 117 / 91 40% 1 01.11.2026 -
Tilman Palacios America de Cali Ativo 112 / 117 40% 2 31.10.2026 -
Facundo Ardiles Estudiantes Ativo 115 / 99 40% 1 31.10.2026 -
Nicolás Retamar Ferro Carril Oeste Ativo 107 / 122 40% 2 28.10.2026 -
Marcos Enrique Tristán Suárez Ativo 101 / 103 40% 1 26.10.2026 -
Juan Salas Patronato Ativo 117 / 105 40% 1 26.10.2026 -
Heiderber Ramírez Deportivo Tachira Ativo 106 / 106 40% 2 25.10.2026 -
Julián Cosi Madryn Ativo 104 / 99 40% 1 24.10.2026 -
Tomás Ferreyra Defensores Unidos Ativo 121 / 112 40% 1 23.10.2026 -
Fermín Antonini Gimnasia y Esgrima Ativo 117 / 119 40% 1 23.10.2026 -
Axel Guerra Chacarita Juniors Ativo 119 / 118 40% 1 21.10.2026 -
Luis Olivera Defensores Unidos Ativo 108 / 108 40% 1 20.10.2026 -
David Veliz Güemes Ativo 116 / 101 40% 1 20.10.2026 -
Raúl Lozano Quilmes Ativo 104 / 109 40% 1 19.10.2026 -
Mauro Valiente Estudiantes Ativo 105 / 118 40% 1 19.10.2026 -
Enzo Acosta Estudiantes Ativo 123 / 116 40% 2 18.10.2026 -
Agustín Aleo Central Norte Ativo 113 / 112 40% 1 18.10.2026 -
Jesús Mendieta Alianza Atletico Ativo 99 / 88 40% 1 17.10.2026 -
Enzo González Defensores Ativo 113 / 116 40% 1 16.10.2026 -
Valentín Depietri Talleres Ativo 122 / 126 40% 1 16.10.2026 -
Federico Versaci Talleres Ativo 103 / 122 40% 2 15.10.2026 -
Juan Pablo De la Reta Maipú Ativo 112 / 121 40% 1 13.10.2026 -
Leomar Mosquera Trujillanos Ativo 95 / 101 40% 1 12.10.2026 -
Lucio Castillo Colegiales Ativo 95 / 104 40% 1 12.10.2026 -
Luis Guevara Real Cartagena Ativo 89 / 116 40% 1 10.10.2026 -
Ángelo Lucena Carabobo Ativo 113 / 94 40% 1 10.10.2026 -
Franco Bustamante Almagro Ativo 113 / 87 40% 1 08.10.2026 -
Tiago Banega Gimnasia y Tiro Ativo 96 / 119 40% 1 08.10.2026 -
Luis Miranda Llaneros Ativo 117 / 104 40% 1 04.10.2026 -
Juan Yangali San Telmo Ativo 115 / 98 40% 1 02.10.2026 -
Kevin Contreras Union Espanola Ativo 86 / 83 40% 1 02.10.2026 -
David Moreno Aragua Ativo 79 / 86 40% 1 30.09.2026 -
Cristhofer Mesías Universidad de Concepcion Ativo 102 / 96 40% 1 30.09.2026 -
Martín Arenas Philadelphia Union Ativo 85 / 108 40% 1 28.09.2026 -
Matías Núñez Carabobo Ativo 90 / 109 40% 1 27.09.2026 -
Javier Saldías Union La Calera Ativo 83 / 101 40% 1 27.09.2026 -
Maximiliano Meléndez Chacarita Juniors Ativo 125 / 134 40% 1 24.09.2026 -
Enzo Vlaeminch Oriental Ativo 95 / 98 40% 1 23.09.2026 -
Lucas Richarte Temperley Ativo 87 / 104 40% 1 23.09.2026 -
Marcos López San Martín Ativo 124 / 144 40% 1 22.09.2026 -
Maico Quiroz Güemes Ativo 111 / 103 40% 1 22.09.2026 -
Carlos Airala Albion Ativo 99 / 115 40% 1 21.09.2026 -
Luis Mina America de Cali Ativo 109 / 106 40% 1 17.09.2026 -
José Luis Caicedo Barranquilla Ativo 116 / 119 40% 1 17.09.2026 -
Wilfredo Peña Portuguesa Ativo 108 / 86 40% 1 16.09.2026 -
Sebastián del Castillo Millonarios Ativo 90 / 100 40% 1 16.09.2026 -
Braian Galván Oriental Ativo 103 / 122 40% 1 14.09.2026 -
Thiago Calone All Boys Ativo 109 / 106 40% 1 13.09.2026 -
Cristóbal Guerra San Marcos de Arica Ativo 91 / 108 40% 1 13.09.2026 -
Emiliano Mozzone Deportivo Maldonado Ativo 93 / 104 40% 1 11.09.2026 -
Mathías Rodríguez Cerrito Ativo 92 / 104 40% 1 11.09.2026 -
Ronald Álvarez Colon Ativo 110 / 90 40% 1 08.09.2026 -
Facundo Muñoa Boston River Ativo 114 / 116 40% 1 08.09.2026 -
Enrique Almeida Cerro Largo Ativo 92 / 102 40% 1 07.09.2026 -
Jano Coronel Quilmes Ativo 101 / 98 40% 1 06.09.2026 -
Santiago Rodríguez Gimnasia y Esgrima Ativo 113 / 103 40% 1 04.09.2026 -
Facundo Castet Colón Ativo 97 / 112 40% 1 04.09.2026 -
Tomás González Estudiantes Ativo 104 / 112 40% 1 02.09.2026 -
Juan Pérez Racing Ativo 87 / 99 40% 1 02.09.2026 -
Franco García Ferro Carril Oeste Ativo 113 / 112 40% 1 31.08.2026 -
Antonio Napolitano Agropecuario Argentino Ativo 102 / 128 40% 1 31.08.2026 -
Nicolás Brun River Plate Ativo 95 / 101 40% 1 28.08.2026 -
Mathías Pintos La Luz Ativo 82 / 105 40% 1 28.08.2026 -
Willimger Castillo Deportivo Lara Ativo 89 / 90 40% 1 23.08.2026 -
Maximiliano Ribero Central Norte Ativo 119 / 120 40% 1 23.08.2026 -
Julián Pou Montevideo City Torque Ativo 90 / 94 40% 1 22.08.2026 -
Fernando Camarda Central Espanol Ativo 94 / 111 40% 1 22.08.2026 -
Kevin González Trujillanos Ativo 95 / 95 40% 1 21.08.2026 -
Ignacio Yepez Cerrito Ativo 120 / 119 40% 1 21.08.2026 -
Martín Ginzo Deportivo Maldonado Ativo 112 / 108 40% 1 20.08.2026 -
Víctor Rivero Aragua Ativo 90 / 89 40% 1 19.08.2026 -
Germán Barrios Defensor Sporting Ativo 107 / 117 40% 1 19.08.2026 -
Axel Encinas Union La Calera Ativo 79 / 95 40% 1 16.08.2026 -
Facundo Briñón Atenas Ativo 105 / 115 40% 1 16.08.2026 -
David Gallardo Gimnasia y Esgrima Ativo 114 / 112 40% 1 15.08.2026 -
Kevin Castro Bogota Ativo 102 / 114 40% 1 15.08.2026 -
Jorge Bermúdez Deportivo Pereira Ativo 99 / 94 40% 1 13.08.2026 -
Luciano Batista Cerrito Ativo 88 / 93 40% 1 13.08.2026 -
Diego Rosa Fenix Ativo 80 / 81 40% 1 12.08.2026 -
Kevin Caicedo Valledupar Ativo 106 / 119 40% 1 11.08.2026 -
Tomás López River Plate Ativo 95 / 107 40% 1 11.08.2026 -
Rommell Ibarra Deportivo La Guaira Ativo 94 / 105 40% 1 09.08.2026 -
Mateo Ayres Cerrito Ativo 92 / 87 40% 1 08.08.2026 -
Bernardo Parra Queretaro Ativo 96 / 106 40% 1 08.08.2026 -
Gabriel Aguayo Cerro Porteno Ativo 87 / 96 40% 1 07.08.2026 -
Bruno Centeno Deportivo Maldonado Ativo 84 / 106 40% 1 07.08.2026 -
Eduardo Fereira Caracas Ativo 94 / 112 40% 1 06.08.2026 -
Santiago Ramírez Deportivo Maldonado Ativo 110 / 94 40% 1 06.08.2026 -
Leonardo Olavarría Uruguay Montevideo Ativo 96 / 112 40% 1 05.08.2026 -
Franco Martínez Artigas Ativo 108 / 89 40% 1 05.08.2026 -
Paolo Guajardo Audax Italiano Ativo 91 / 106 40% 1 04.08.2026 -
Daniel Mantilla Llaneros Ativo 106 / 104 40% 1 04.08.2026 -